Wind_Speed
20 19 16 15 20 20 17 17 15 14 15 16 17 16 17 15 14 16 19 20 20 19 19 21 20 20 21 22 20 20 21 19 19 20 19 19 18 18 15 16 14 13 11
24 24 25 18 22 24 20 20 19 17 16 16 16 17 17 16 17 18 20 21 21 19 20 22 20 20 19 19 19 19 19 19 20 21 22 22 21 19 18 16 15 13 10
35 31 29 25 21 22 23 24 23 21 19 17 17 19 17 19 21 22 23 21 21 22 22 23 20 21 19 18 19 18 17 18 20 21 22 22 21 21 19 17 16 13 11
39 36 32 30 27 25 26 26 25 24 21 19 19 18 20 21 23 23 24 23 23 23 23 22 21 20 20 20 20 19 16 18 20 22 21 21 19 19 19 17 15 13 11
36 37 37 35 31 27 29 28 28 26 23 21 20 19 20 22 22 24 24 23 23 25 21 22 21 20 21 20 20 19 16 18 20 22 21 19 18 17 17 16 13 13 11
38 39 40 35 34 30 30 28 30 27 26 24 22 19 20 21 22 23 24 23 24 23 22 22 20 20 19 20 19 19 19 19 18 20 19 18 16 17 16 14 14 13 13
39 39 40 39 37 35 34 30 31 30 29 26 25 22 20 20 22 23 24 23 23 23 21 20 20 19 20 20 21 19 19 19 17 18 18 17 16 16 16 15 15 15 14
37 40 40 38 40 39 36 32 33 34 31 29 27 25 22 21 22 23 23 24 23 21 20 20 19 19 18 18 23 22 15 17 18 17 16 15 15 15 17 16 17 18 12
39 41 44 41 38 36 35 32 32 35 32 31 29 27 23 21 22 22 21 23 22 19 19 19 18 16 16 18 19 20 14 14 17 17 17 16 17 17 17 18 20 19 13
39 42 43 41 39 37 37 35 32 35 35 32 32 28 24 22 22 21 20 21 21 20 20 18 19 18 16 18 18 17 15 15 17 20 20 18 19 17 19 22 22 23 16
42 41 37 37 37 38 37 35 31 35 36 34 33 30 25 23 22 20 20 22 22 22 22 24 22 19 20 21 19 20 17 18 20 22 22 21 20 19 19 24 24 16 16
44 42 39 37 36 36 36 33 31 33 32 34 36 32 27 25 22 21 20 22 22 23 25 26 26 24 20 22 21 19 21 20 24 22 23 23 23 19 19 18 19 15 17
43 40 40 42 41 38 36 37 34 32 31 33 36 34 29 27 23 22 22 23 24 26 28 28 27 27 26 23 22 19 21 22 25 30 24 25 25 21 19 17 15 15 17
48 44 40 41 40 36 37 42 38 34 33 31 33 34 31 29 26 25 24 25 26 29 30 31 30 29 32 29 27 26 24 24 28 28 28 27 27 24 23 21 21 19 18
50 44 39 40 46 36 39 39 40 36 34 31 32 33 33 31 29 27 27 29 29 32 33 33 33 33 34 33 33 30 24 24 25 26 28 27 28 27 24 24 24 22 20
52 49 44 41 44 35 40 38 41 40 38 34 32 34 35 32 31 29 30 30 32 35 36 35 32 32 32 33 32 31 29 21 22 24 25 28 28 27 26 26 26 23 22
58 56 49 49 43 36 41 37 38 38 40 37 35 35 35 34 33 32 31 31 34 35 37 33 28 29 32 34 31 29 29 24 23 29 29 33 29 30 30 29 28 26 24
61 61 54 49 45 37 41 43 39 41 41 40 38 37 36 36 34 33 33 32 33 35 34 28 28 31 31 31 30 30 30 35 23 26 35 38 32 31 32 29 30 29 26
64 63 59 51 43 39 41 44 42 44 43 43 42 39 38 39 36 34 33 34 34 34 29 27 31 31 29 28 30 31 29 36 26 27 37 41 37 37 33 31 33 30 28
63 62 61 55 45 41 36 44 47 45 44 45 42 41 42 37 35 34 34 33 35 32 28 29 30 29 28 28 30 30 29 31 33 30 35 38 40 39 35 33 33 32 30
62 62 60 58 49 46 44 42 44 46 46 45 42 41 38 34 36 35 34 32 34 33 29 30 29 29 27 29 29 27 29 31 38 34 33 36 44 38 38 41 39 34 32
59 59 60 58 49 48 48 43 42 46 47 46 45 43 35 34 37 36 34 32 36 35 30 30 29 30 30 28 26 24 33 30 33 35 36 37 43 42 34 40 40 36 34
58 58 60 56 50 51 48 46 45 46 48 48 47 37 33 32 39 39 34 35 37 33 31 29 30 29 30 25 25 24 30 33 27 33 31 37 42 37 33 29 33 37 35
55 55 58 53 50 51 45 44 46 47 46 46 40 37 36 41 43 40 35 35 37 35 30 31 30 29 29 26 26 24 29 28 28 31 32 36 40 40 34 28 31 34 35
57 54 55 54 51 46 41 36 42 46 45 44 43 40 38 41 41 40 34 35 37 35 31 32 31 30 27 27 25 26 26 25 23 30 34 43 45 39 34 32 33 35 35
54 50 49 51 51 47 40 35 39 42 41 41 40 39 38 40 40 39 37 36 37 35 33 33 32 31 29 27 26 27 28 27 27 30 31 32 41 43 37 38 34 35 36
Wind_Direction
272 276 276 273 274 275 277 278 283 288 295 301 312 311 310 310 313 315 315 315 314 312 317 317 313 308 304 301 294 282 267 261 255 256 261 267 262 254 265 253 240 230 223
287 289 288 279 271 276 281 280 279 281 288 298 308 305 303 307 311 314 318 320 319 316 318 315 313 309 305 300 297 283 266 255 249 251 259 262 264 259 250 248 237 228 229
279 283 285 282 282 288 284 282 280 280 284 291 299 302 301 307 310 313 315 319 318 317 317 315 312 307 305 301 299 293 269 255 251 252 258 264 265 259 254 246 234 228 225
267 274 278 284 284 283 289 284 281 278 283 285 293 297 304 308 311 312 312 314 315 317 317 314 311 308 306 303 298 296 277 258 247 250 254 259 260 257 252 247 234 230 231
262 269 274 278 283 283 284 284 286 279 278 280 284 293 299 305 309 308 308 311 316 315 314 309 307 308 308 306 295 290 279 260 249 250 253 254 251 252 249 243 240 228 222
260 265 271 277 278 276 278 282 287 283 275 276 278 286 294 301 304 304 306 310 313 312 308 307 308 315 312 308 296 294 287 264 250 249 251 249 246 248 248 243 241 227 219
271 270 271 276 278 280 277 278 285 284 278 275 275 280 288 296 298 300 304 304 307 309 306 306 312 312 317 314 297 280 280 271 250 245 246 244 245 249 245 237 234 224 225
273 270 270 271 277 277 280 279 278 282 281 275 273 276 282 289 292 298 301 303 307 309 305 305 309 317 321 322 299 280 270 273 255 243 245 244 243 243 244 238 228 218 217
263 267 267 269 273 273 274 275 273 279 279 273 270 273 276 279 284 293 297 300 307 305 302 306 303 308 313 308 311 296 263 265 254 244 245 239 241 240 240 233 224 222 215
262 262 267 266 267 270 274 272 269 272 274 270 266 268 270 271 279 287 291 294 303 302 303 296 292 293 288 294 304 280 255 249 248 242 242 236 240 239 236 230 220 213 227
265 267 268 267 264 263 268 270 268 266 269 267 264 265 264 264 272 281 284 291 297 299 297 294 296 294 290 287 288 276 257 251 242 239 238 235 238 238 240 244 208 210 222
262 265 261 261 266 262 264 269 266 264 268 265 261 263 262 259 266 273 278 285 291 295 296 295 295 292 279 281 282 284 258 255 251 236 238 236 240 239 240 251 199 208 219
265 267 263 262 264 265 263 263 262 257 262 261 259 261 262 260 264 267 276 280 284 290 293 291 290 286 281 277 269 274 261 249 258 245 239 240 238 236 236 240 243 225 228
272 272 273 270 271 273 267 264 267 262 257 256 260 260 262 262 263 268 274 279 283 290 292 291 286 278 274 267 257 258 264 264 262 248 235 239 237 230 232 232 233 229 228
268 269 271 276 277 279 279 270 262 260 257 253 257 258 260 262 263 269 275 281 286 289 293 291 287 277 268 262 256 263 264 249 255 231 210 232 239 234 232 231 231 228 228
267 269 268 270 272 272 267 260 261 258 256 251 250 253 257 259 263 268 274 283 288 291 293 293 284 277 270 264 259 257 255 249 232 216 223 221 230 233 229 228 230 225 222
263 265 262 263 262 255 261 257 256 253 249 250 247 248 253 257 261 267 275 283 287 293 294 293 282 280 275 267 260 252 249 247 220 230 234 223 222 229 230 226 227 233 234
254 256 257 255 254 245 250 255 250 248 246 246 245 244 249 254 259 266 275 282 289 290 291 287 285 283 277 270 261 254 246 247 245 233 226 222 228 226 226 226 228 232 232
254 258 258 255 256 246 244 249 245 244 243 242 243 242 246 251 257 265 273 280 288 289 285 280 283 278 274 270 267 260 251 253 244 228 222 226 231 233 223 227 227 232 233
250 252 256 258 254 248 240 243 243 238 239 239 240 243 245 249 258 265 272 277 284 287 277 277 278 273 273 274 270 261 258 256 253 237 227 227 233 238 232 223 230 233 234
247 248 250 252 250 256 259 245 246 242 238 239 239 242 246 253 257 262 269 276 283 282 271 277 274 272 273 275 272 267 257 252 256 238 235 233 232 237 237 230 223 230 233
244 244 243 247 244 251 253 246 247 238 235 235 233 236 245 253 260 265 268 274 278 280 267 274 270 271 275 276 264 268 252 246 248 240 243 230 223 234 242 248 238 222 231
242 242 243 243 241 245 250 246 246 235 232 231 233 234 242 250 257 260 265 267 273 272 263 269 267 270 277 272 263 269 255 260 261 234 232 224 223 232 240 244 232 221 229
234 235 237 235 238 246 245 244 242 233 229 230 232 230 234 242 251 257 264 269 272 263 262 263 263 270 275 264 258 262 258 274 261 236 231 218 219 233 239 234 229 225 228
229 226 226 229 234 236 238 237 231 228 225 222 222 227 235 246 251 258 264 267 270 260 258 259 259 267 271 266 264 257 258 255 250 233 233 223 230 234 238 232 229 227 230
223 224 224 226 226 231 229 232 224 221 222 223 228 234 238 247 253 261 265 264 266 259 260 258 255 263 268 267 262 260 257 264 251 232 232 232 233 236 239 234 227 227 233
Height
5846 5848 5849 5848 5846 5845 5845 5844 5844 5843 5843 5842 5841 5841 5840 5840 5840 5838 5837 5836 5834 5833 5831 5829 5827 5826 5825 5824 5823 5823 5824 5825 5827 5829 5830 5831 5830 5830 5831 5832 5832 5833 5833
5842 5843 5846 5847 5845 5844 5843 5842 5841 5841 5840 5839 5838 5838 5838 5837 5836 5835 5834 5832 5831 5829 5828 5826 5825 5823 5823 5822 5821 5820 5821 5822 5823 5825 5827 5828 5829 5830 5830 5830 5831 5832 5833
5838 5840 5840 5842 5844 5842 5840 5840 5839 5838 5837 5836 5836 5835 5834 5833 5832 5831 5830 5829 5827 5826 5825 5823 5822 5821 5820 5820 5819 5819 5818 5819 5821 5823 5824 5826 5828 5829 5829 5829 5830 5831 5832
5834 5835 5836 5837 5838 5839 5837 5836 5835 5835 5834 5833 5833 5832 5831 5830 5829 5828 5827 5825 5824 5822 5822 5820 5819 5820 5819 5819 5818 5816 5816 5817 5818 5819 5821 5823 5825 5826 5828 5829 5830 5831 5832
5830 5830 5831 5832 5833 5834 5834 5833 5832 5831 5831 5830 5830 5828 5827 5826 5826 5825 5824 5822 5820 5819 5818 5817 5817 5817 5817 5816 5816 5814 5813 5813 5815 5817 5819 5820 5822 5824 5826 5828 5829 5829 5831
5826 5826 5826 5828 5827 5828 5829 5829 5827 5828 5827 5827 5827 5825 5824 5823 5823 5821 5821 5819 5817 5816 5815 5814 5814 5814 5814 5813 5813 5812 5811 5811 5812 5814 5816 5817 5819 5821 5824 5826 5827 5828 5829
5822 5822 5822 5823 5823 5824 5825 5825 5823 5822 5823 5823 5823 5822 5821 5820 5819 5818 5817 5816 5814 5813 5812 5811 5811 5811 5812 5811 5809 5809 5808 5809 5810 5811 5813 5815 5817 5820 5823 5824 5825 5827 5827
5816 5816 5816 5818 5818 5819 5820 5821 5820 5817 5818 5819 5819 5818 5817 5816 5815 5814 5814 5813 5810 5809 5808 5809 5808 5808 5808 5807 5806 5804 5804 5807 5808 5809 5811 5814 5815 5818 5821 5822 5823 5824 5825
5810 5810 5810 5811 5813 5813 5814 5814 5815 5813 5813 5814 5815 5815 5814 5812 5811 5811 5810 5809 5807 5806 5805 5806 5805 5804 5805 5804 5803 5802 5801 5803 5806 5808 5809 5811 5813 5815 5818 5820 5821 5822 5824
5803 5803 5804 5805 5807 5808 5809 5809 5810 5809 5808 5809 5810 5810 5810 5809 5808 5806 5806 5805 5804 5802 5802 5802 5802 5802 5802 5801 5801 5799 5799 5800 5803 5805 5806 5808 5810 5812 5814 5816 5817 5818 5822
5793 5796 5797 5797 5799 5800 5801 5803 5804 5804 5802 5803 5805 5805 5805 5805 5803 5802 5801 5801 5800 5800 5798 5797 5797 5798 5798 5797 5797 5797 5796 5798 5799 5801 5803 5804 5807 5809 5811 5812 5814 5817 5820
5785 5787 5789 5789 5791 5793 5794 5795 5797 5798 5797 5798 5798 5800 5800 5800 5799 5799 5797 5797 5796 5796 5794 5793 5792 5792 5793 5793 5793 5793 5794 5795 5797 5797 5800 5802 5803 5806 5807 5809 5810 5814 5817
5778 5779 5780 5782 5784 5786 5787 5788 5790 5792 5793 5792 5792 5793 5795 5794 5794 5794 5793 5792 5792 5791 5790 5789 5788 5787 5787 5788 5788 5789 5790 5790 5792 5794 5795 5798 5801 5803 5805 5807 5810 5813 5816
5770 5772 5774 5774 5774 5778 5781 5781 5782 5784 5786 5786 5786 5786 5788 5788 5788 5789 5788 5787 5787 5786 5785 5784 5782 5782 5782 5783 5783 5784 5784 5786 5787 5789 5792 5794 5796 5799 5802 5804 5808 5810 5813
5756 5763 5766 5766 5766 5771 5770 5773 5773 5776 5778 5779 5779 5780 5781 5782 5783 5783 5782 5781 5781 5780 5779 5777 5776 5776 5776 5776 5777 5778 5779 5780 5781 5781 5787 5790 5791 5795 5799 5802 5805 5807 5810
5745 5749 5754 5757 5759 5764 5760 5762 5764 5767 5769 5770 5772 5774 5774 5775 5777 5777 5776 5775 5775 5773 5772 5770 5769 5767 5767 5769 5770 5772 5773 5773 5776 5777 5782 5786 5788 5790 5794 5798 5801 5804 5806
5734 5737 5741 5747 5750 5754 5753 5752 5755 5758 5760 5762 5764 5766 5767 5768 5770 5771 5770 5769 5769 5767 5764 5763 5763 5763 5762 5762 5764 5765 5767 5766 5771 5774 5778 5781 5783 5786 5790 5793 5797 5800 5803
5724 5725 5729 5735 5740 5745 5745 5745 5746 5749 5751 5753 5755 5758 5760 5762 5763 5763 5763 5763 5763 5761 5758 5758 5757 5757 5757 5756 5757 5759 5760 5759 5763 5768 5772 5775 5778 5781 5784 5789 5792 5795 5798
5710 5712 5716 5721 5727 5734 5736 5736 5736 5739 5742 5745 5747 5750 5753 5754 5756 5756 5757 5757 5756 5755 5754 5753 5753 5752 5752 5752 5751 5752 5754 5754 5757 5761 5765 5769 5772 5774 5778 5783 5787 5790 5793
5697 5700 5704 5708 5715 5721 5724 5725 5727 5729 5732 5736 5738 5742 5744 5747 5749 5750 5750 5750 5750 5749 5749 5748 5747 5747 5747 5746 5745 5746 5748 5749 5751 5754 5758 5762 5766 5770 5772 5776 5781 5785 5788
5683 5686 5692 5696 5703 5707 5711 5715 5720 5724 5725 5728 5732 5733 5736 5740 5742 5742 5743 5743 5743 5743 5743 5743 5742 5741 5741 5740 5738 5740 5741 5745 5746 5748 5751 5755 5759 5764 5767 5769 5773 5778 5782
5666 5671 5677 5684 5691 5695 5700 5705 5710 5716 5715 5720 5722 5723 5729 5734 5736 5736 5736 5736 5737 5737 5737 5737 5736 5736 5734 5733 5733 5734 5732 5732 5739 5742 5744 5747 5753 5757 5761 5764 5766 5771 5775
5652 5660 5665 5673 5679 5683 5689 5694 5701 5703 5705 5708 5713 5719 5724 5726 5726 5727 5729 5729 5730 5731 5731 5731 5730 5729 5728 5727 5728 5728 5729 5730 5732 5735 5738 5742 5746 5752 5755 5758 5761 5764 5768
5638 5646 5653 5662 5669 5672 5678 5685 5691 5693 5698 5704 5710 5711 5713 5715 5719 5720 5721 5722 5722 5724 5725 5725 5724 5723 5721 5722 5721 5723 5723 5725 5726 5729 5732 5736 5740 5745 5750 5753 5755 5758 5762
5625 5634 5641 5649 5657 5663 5671 5678 5681 5684 5690 5693 5697 5701 5705 5707 5710 5711 5712 5714 5714 5716 5717 5718 5718 5718 5717 5716 5716 5717 5718 5719 5720 5723 5726 5731 5735 5740 5744 5747 5750 5752 5755
5614 5622 5632 5638 5648 5656 5663 5671 5675 5678 5681 5685 5688 5693 5698 5698 5700 5702 5704 5705 5707 5707 5709 5710 5710 5712 5711 5710 5710 5710 5711 5712 5714 5716 5721 5725 5731 5734 5737 5740 5743 5745 5749